Duchifat 3
1 44854U 19089C   25079.59181775  .00063321  00000-0  16520-2 0  9999
2 44854  36.9456 147.0953 0005830 229.1721 130.8527 15.37747445290430
TO-108
1 44881U 19093C   25079.86363577  .00003080  00000-0  36394-3 0  9994
2 44881  97.7967 157.1981 0014967 133.2156 227.0312 14.85309396284090
FloripaSat 1
1 44885U 19093G   25079.85150139  .00016110  00000-0  14005-2 0  9997
2 44885  97.8162 167.3631 0012299 116.4229 243.8256 14.97001878284660
RS-44
1 44909U 19096E   25079.63790716  .00000028  00000-0  60012-4 0  9996
2 44909  82.5168 281.0707 0218322 124.7020 237.4862 12.79739376244384
UPMSat 2
1 46276U 20061E   25079.77049170  .00074777  00000-0  10287-2 0  9994
2 46276  97.2536 152.0794 0001764 159.0517 201.0811 15.57025190252842
SALSAT
1 46495U 20068K   25079.48669946  .00017141  00000-0  77630-3 0  9999
2 46495  97.8545  53.9015 0014261  84.9231 275.3631 15.20858716246194
CubeSX-Sirius-HSE
1 47951U 21022V   25079.85171467  .00159544  00000-0  19087-2 0  9990
2 47951  97.4270 348.5058 0005681 188.5645 171.5516 15.60433107221121
CubeSX-HSE
1 47952U 21022W   25079.88367775  .00157497  00000-0  18421-2 0  9999
2 47952  97.4272 348.7481 0006086 181.1035 179.0210 15.61030005221145
KSU-Cubesat
1 47954U 21022Y   25079.80784286  .04512154  24789-5  18472-2 0  9993
2 47954  97.4032 354.3295 0007364 173.7070 186.4314 16.23292442221212
GRBAlpha
1 47959U 21022AD  25079.85000047  .00158674  00000-0  18742-2 0  9993
2 47959  97.4260 348.8562 0005714 187.3120 172.8054 15.60771119219961
Orbicraft-Zorkiy
1 47960U 21022AE  25079.80173357  .00457766  00000-0  23564-2 0  9997
2 47960  97.4223 352.6104 0006989 152.2633 207.9009 15.79948453220860
TUBIN
1 48900U 21059X   25079.84867286  .00070909  00000-0  11900-2 0  9998
2 48900  97.6706 243.0537 0004475 187.0702 173.0487 15.51552483207487
LEDSAT
1 49069U 21073D   25079.74382206  .00079323  00000-0  14603-2 0  9996
2 49069  97.3956 158.5778 0010651  15.4099 344.7474 15.48838537198879
CUTE
1 49263U 21088D   25079.15137073  .00028839  00000-0  65298-3 0  9996
2 49263  97.4573 153.2390 0009771 172.1324 188.0079 15.43034398191855
TeikyoSat 4
1 49396U 21102B   25079.69968703  .00005600  00000-0  37625-3 0  9995
2 49396  97.4219 121.0255 0014155  56.6304 303.6277 15.07087506184360
Z-Sat
1 49399U 21102E   25079.85255635  .00011023  00000-0  61893-3 0  9999
2 49399  97.3919 123.7952 0019013  29.1902 331.0388 15.13341282184762
KOSEN 1
1 49402U 21102H   25079.67637031  .00016377  00000-0  79091-3 0  9994
2 49402  97.3823 126.4593 0016194   7.8413 352.3071 15.18611669185006
HO-113
1 50466U 21131B   25079.85334978  .00002155  00000-0  68903-3 0  9991
2 50466  98.5087 169.6197 0004448  34.0512 326.0961 14.40639812169825
IRIS-A
1 51044U 22002BN  25079.75800483  .00169645  00000-0  16384-2 0  9993
2 51044  97.3351 155.9705 0003035 147.3299 212.8150 15.65916613177111
Foresail-1
1 52766U 22057AL  25079.35866580  .00148217  00000-0  15213-2 0  9993
2 52766  97.6011 223.2541 0006713 226.6284 133.4416 15.64424370157087
SNUGLITE 2
1 52899U 22065F   25079.37955304  .00004641  00000-0  91721-3 0  9995
2 52899  98.1539 222.2188 0007554  16.4035 343.7410 14.62842329144614
IO-117
1 53106U 22080B   25051.21822557 -.00000003  00000-0  00000+0 0  9995
2 53106  70.1434 106.3440 0008542  48.0089 312.1297  6.42557744 61200
UmKA 1 (RS40S)
1 57172U 23091G   25079.88296301  .00014505  00000-0  80225-3 0  9992
2 57172  97.5691 135.7139 0013551 250.0570 109.9202 15.13897872 95260
CubeBel-2 (EU11S)
1 57175U 23091K   25079.90497315  .00021001  00000-0  10620-2 0  9996
2 57175  97.5687 136.4408 0011628 259.3320 100.6604 15.17009521 95313
VERONIKA
1 58261U 23174F   25079.84166820  .00113333  00000-0  19646-2 0  9999
2 58261  97.4204 162.4017 0005858 323.2158  36.8691 15.50464936 76099
KAFASAT
1 58317U 23174BP  25079.81088494  .00742053  00000-0  26789-2 0  9991
2 58317  97.4024 166.9283 0009175 270.8097  89.2123 15.86843175 76413
ENSO
1 58470U 23185J   25079.87089813  .00072664  00000-0  14925-2 0  9998
2 58470  97.3819 152.9504 0007008  15.2113 344.9345 15.45724680 72527
EIRSAT-1
1 58472U 23185L   25079.85463766  .00103674  00000-0  17631-2 0  9994
2 58472  97.3801 153.8452 0005632  12.7443 347.3951 15.51044772 72581
SONATE-2
1 59112U 24043Q   25079.35240536  .00037550  00000-0  12179-2 0  9994
2 59112  97.5007 209.1707 0011673  46.5830 313.6381 15.31814004 57888
MO-122
1 60209U 24125G   25079.57838055  .00032916  00000-0  10531-2 0  9998
2 60209  97.2907 292.2506 0021658  69.5721 290.7844 15.32114373 39535
GRBBeta
1 60237U 24128C   25079.12679756  .00015722  00000-0  11973-2 0  9991
2 60237  61.9943   3.3549 0044306  39.7038 320.7281 15.01496456 37962
Curium One
1 60242U 24128H   25079.14736826  .00024458  00000-0  17695-2 0  9994
2 60242  61.9842   2.6232 0044409  35.2664 325.1351 15.03194935 37985
ROBUSTA-3A
1 60243U 24128J   25079.32681931  .00025013  00000-0  18300-2 0  9993
2 60243  61.9912   2.5733 0042665  32.9410 327.4326 15.02827473 38004
CatSat
1 60246U 24125J   25079.56138631  .00018296  00000-0  64849-3 0  9998
2 60246  97.2690 292.2845 0045053  24.6708 335.6673 15.28160146 37602
HYPERVIEW-1G (RS66S)
1 61772U 24199AP  25079.89580099  .00038662  00000-0  12860-2 0  9993
2 61772  97.3670 309.0928 0016409 118.7349 241.5543 15.30928200 64599
AO-123
1 61781U 24199AY  25079.88288551  .00015504  00000-0  58994-3 0  9999
2 61781  97.3677 308.6691 0017869 120.8154 239.4846 15.26693810 64567
ZIMSAT 2
1 61783U 24199BA  25079.89069726  .00053805  00000-0  16532-2 0  9990
2 61783  97.3663 309.2443 0017242 117.9649 242.3341 15.33376213 67757
POEM 4 (BGS ARPIT)
1 62461U 24253C   25079.70589565  .00517868  12980-3  93477-3 0  9994
2 62461  55.2126 232.0064 0000039 286.6679  73.4376 16.01094085 12653
HADES-R (SO-124)
1 62690U 25009CK  25079.74982633  .00063143  00000-0  27893-2 0  9992
2 62690  97.4143 161.2615 0001674  20.6693 339.4610 15.21480684  9823
HYDRA-T
1 62692U 25009CM  25078.16715185  .00063701  00000-0  28213-2 0  9992
2 62692  97.4144 159.7104 0001429  19.3711 340.7579 15.21388419  9580
